Regional Weather Roundup
Issued by NWS Boston, MA

Home | Current Version | Previous Version | Text Only | Print | Product List | Glossary On
Versions: 1 2 3 4 5 6 7 8 9 10 11 12 13 14 15 16 17 18 19 20 21 22 23 24 25 26 27 28 29 30 31 32 33 34 35 36 37 38 39 40 41 42 43 44 45 46 47 48 49 50
000
ASUS41 KBOX 031310
RWRBOX

REGIONAL WEATHER ROUNDUP
NATIONAL WEATHER SERVICE TAUNTON MA
900 AM EDT THU SEP 03 2015

NOTE:  "FAIR" INDICATES FEW OR NO CLOUDS BELOW 12,000 FEET WITH NO
SIGNIFICANT WEATHER AND/OR OBSTRUCTIONS TO VISIBILITY.  THE FOLLOWING
OBSERVATION LOCATIONS DO NOT REPORT PRESENT WEATHER...PROVINCETOWN...
SMITHFIELD...BLOCK ISLAND...KEENE...AND OXFORD.

MAZALL-031400-
EASTERN MASSACHUSETTS

CITY           SKY/WX    TMP DP  RH WIND       PRES   REMARKS
BOSTON         MOSUNNY   77  65  66 N7        29.86R
BEVERLY        SUNNY     74  66  76 N5        29.86R
LAWRENCE       SUNNY     75  66  73 CALM      29.89R
BEDFORD        SUNNY     74  65  73 NW6       29.86R
BLUE HILL        N/A     73  65  75 NW8       29.87S
NORWOOD        SUNNY     75  68  78 CALM      29.86S
MARSHFIELD     SUNNY     75  68  78 W3        29.87S
PLYMOUTH       SUNNY     73  67  81 NW3       29.87R
TAUNTON        SUNNY     76  66  71 VRB3      29.86R
NEW BEDFORD    SUNNY     75  67  76 W3        29.85S
$$

MAZALL-031400-
CAPE COD AND THE ISLANDS

CITY           SKY/WX    TMP DP  RH WIND       PRES   REMARKS
FALMOUTH       SUNNY     75  70  83 SW8       29.86S
HYANNIS        SUNNY     76  68  76 W6        29.85S
CHATHAM        SUNNY     77  71  82 VRB6      29.87S
PROVINCETOWN     N/A     72  63  73 W6        29.86S
NANTUCKET      NOT AVBL
MARTHAS VNYRD  MOSUNNY   75  72  90 SW8       29.87R
$$

MAZALL-031400-
CENTRAL AND WESTERN MASSACHUSETTS

CITY           SKY/WX    TMP DP  RH WIND       PRES   REMARKS
WORCESTER      MOSUNNY   77  65  66 N7        29.91R
FITCHBURG      SUNNY     80  66  62 N5        29.88S HAZE
ORANGE         MOSUNNY   68  64  87 CALM      29.90F
SPRINGFIELD    NOT AVBL
WESTFIELD      MOSUNNY   71  67  87 CALM      29.89S
NORTH ADAMS    FOG       63  62  97 CALM      29.94S VSB 1/4
PITTSFIELD     MOSUNNY   65  64  97 NE5       29.93S FOG
$$

RIZALL-031400-
RHODE ISLAND

CITY           SKY/WX    TMP DP  RH WIND       PRES   REMARKS
PROVIDENCE     PTSUNNY   77  66  68 CALM      29.87S
NEWPORT        SUNNY     75  67  76 CALM      29.87R
BLOCK ISLAND   SUNNY     75  72  88 W9        29.88S
SMITHFIELD     SUNNY     75  68  78 NW5       29.88S
WESTERLY       SUNNY     75  66  73 W3        29.88R
$$

CTZALL-031400-
CONNECTICUT

CITY           SKY/WX    TMP DP  RH WIND       PRES   REMARKS
BRADLEY INTL   PTSUNNY   72  66  81 N3        29.89R HAZE
HARTFORD       SUNNY     75  66  73 N6        29.88S
BRIDGEPORT     SUNNY     77  67  71 CALM      29.87F
DANBURY        SUNNY     75  64  68 CALM      29.91F
GROTON         SUNNY     76  69  79 CALM      29.87R
NEW HAVEN      MOSUNNY   75  66  73 VRB5      29.88S
CHESTER        NOT AVBL
MERIDEN          N/A     75  65  70 CALM      29.88S
WILLIMANTIC    SUNNY     70  64  81 CALM      29.89S
OXFORD         MOSUNNY   73  63  68 N6        29.92S HAZE
$$

MEZ002-015-021-024-NHZ003-005-008-011-012-014-VTZ005-008-031400-
NORTHERN NEW ENGLAND

CITY           SKY/WX    TMP DP  RH WIND       PRES   REMARKS
PORTLAND ME    MOSUNNY   75  68  78 W3        29.86S
BANGOR ME      MOSUNNY   76  67  73 NW8       29.85R HAZE
CONCORD NH     MOSUNNY   72  66  81 CALM      29.89R
MANCHESTER NH  PTSUNNY   75  64  68 VRB3      29.87R
NASHUA NH      SUNNY     73  66  78 NW6       29.88R
PORTSMOUTH NH  PTSUNNY   75  66  72 VRB3      29.86R
JAFFREY NH     SUNNY     72  66  81 CALM      29.92S
KEENE NH       CLOUDY    64  61  88 CALM      29.91F
BURLINGTON VT  CLOUDY    71  66  84 CALM      29.91S
MT. WASHINGTON FOG       54  54 100 NW25G37     N/A  VSB 0
$$

NYZ052-076-031400-
EASTERN NEW YORK

CITY           SKY/WX    TMP DP  RH WIND       PRES   REMARKS
ALBANY         PTSUNNY   72  65  78 CALM      29.92S
NEW YORK CITY  MOSUNNY   79  64  60 N5        29.88S
$$

ANZALL-031400-
MARINE OBSERVATIONS

STATION/POSITION TIME  TEMP    WIND        PRES    VSBY  WAVE
                       AIR SEA DIR/SP/G                  HT/PER
                 (UTC) (F)     (DEG/KT/KT) (MB)    (MI)  (FT/S)
BOSTON BUOY      1250   70 70  290/  6/  6 1011.4R         1
BUZZARDS BAY     1200          230/ 11/ 12 1011.8R
NANTUCKET SOUND  1250   74 72  240/ 12/ 12 1010.8S         1/ 3
MASS BAY-STELLWA 1204   69 68  270/  4/  4   N/A    1 7/8  1
ISLE OF SHOALS   1300   71     350/  8/  8 1010.7R
S OF BLOCK IS    1208      72                N/A           2/13
$$

......................KEY.........................
  SKY/WX - SKY CONDITION/PRESENT WEATHER
  TMP    - TEMPERATURE IN FAHRENHEIT
  DWPT   - DEWPOINT IN FAHRENHEIT
  RH     - RELATIVE HUMIDITY IN PERCENT
  WIND   - DIRECTION AND SPEED IN MPH
  PRES   - MEAN SEA LEVEL PRESSURE IN INCHES OF HG
  WCI    - WIND CHILL INDEX
  VSB    - VISIBILITY IN MILES
  HX     - HEAT INDEX
  TC     - TEMPERATURE IN CELSIUS
  VRB    - VARIABLE WIND DIRECTION
  N/A    - NOT AVAILABLE


USA.gov is the U.S. government's official web portal to all federal, state and local government web resources and services.